Regional Weather Roundup
Issued by NWS

Home | Current Version | Previous Version | Text Only | Print | Product List | Glossary Off
Versions: 1 2 3 4 5 6 7 8 9 10 11 12 13 14 15 16 17 18 19 20 21 22 23 24 25 26 27 28 29 30 31 32 33 34 35 36 37 38 39 40 41 42 43 44 45 46 47 48 49 50

000
ASUS43 KMPX 170710
RWRMN
WEATHER ROUNDUP FOR MINNESOTA
NATIONAL WEATHER SERVICE TWIN CITIES/CHANHASSEN MN
200 AM CDT TUE OCT 17 2017


NOTE: "FAIR" INDICATES FEW OR NO CLOUDS BELOW 12,000 FEET WITH NO
SIGNIFICANT WEATHER AND/OR OBSTRUCTIONS TO VISIBILITY. N/A MEANS
CURRENT SKY AND/OR WEATHER CONDITIONS ARE NOT AVAILABLE.

MNZ060>063-068>070-170800-
   Twin Cities Metro

CITY           SKY/WX    TMP DP  RH WIND       PRES   REMARKS
TWIN CITIES    CLEAR     54  41  61 SW3       29.97R
ST PAUL        CLOUDY    46  42  86 CALM      29.98R
CRYSTAL        PTCLDY    50  38  63 S3        29.96R
BLAINE         CLOUDY    48  39  71 S5        29.96R
LAKEVILLE      CLEAR     52  41  66 SW3       29.98R
EDEN PRAIRIE   PTCLDY    51  40  65 SW5       29.96S
SOUTH ST PAUL  CLOUDY    48  39  71 CALM      29.97R
LAKE ELMO      FAIR      46  39  76 S5        29.98R
$$
MNZ001>005-007-008-013>017-022>024-027-028-170800-
   Northwest Minnesota

CITY           SKY/WX    TMP DP  RH WIND       PRES   REMARKS
BEMIDJI        CLEAR     40  34  79 W3        29.92R
HALLOCK        CLOUDY    37  28  70 S3        29.88R
ROSEAU           N/A     50  37  62 W5        29.88R
WARROAD        CLEAR     45  37  76 W6        29.88R
THIEF RVR FALL CLOUDY    47  34  60 SW3       29.91S
CROOKSTON      CLOUDY    37  30  75 S3        29.92R
FOSSTON        CLEAR     37  32  81 S8        29.93S
DETROIT LAKES  CLOUDY    43  41  93 CALM      29.95R
MOORHEAD       CLOUDY    45  36  70 CALM      29.94S
PARK RAPIDS    CLEAR     42  38  85 CALM      29.93R
MAHNOMEN       FAIR      44  37  78 S7        29.93R
$$
MNZ006-009>011-018-025>026-170800-
   North Central Minnesota

CITY           SKY/WX    TMP DP  RH WIND       PRES   REMARKS
BAUDETTE       CLEAR     49  36  61 W7        29.87R
FLAG ISLAND    CLEAR     50  37  62 NW8       29.85R
INTL FALLS     CLOUDY    46  35  65 W7        29.86R
WASKISH        CLEAR     46  43  87 SW3       29.89R
BIG FORK       CLOUDY    41  36  81 CALM      29.89S
LONGVILLE      CLOUDY    45  41  87 SW3       29.92R
GRAND RAPIDS   CLOUDY    53  39  59 W7        29.92R
CRANE LAKE     CLEAR     37  36  93 CALM      29.87R
ORR            CLOUDY    43  36  75 CALM      29.85R
COOK           CLOUDY    45  37  76 W5        29.89R
WALKER         FAIR      46  36  68 NW3       29.92R
$$
MNZ012-019>021-037-170800-
   Northeast Minnesota

CITY           SKY/WX    TMP DP  RH WIND       PRES   REMARKS
DULUTH         CLOUDY    43  37  79 W9        29.90R
ELY            CLEAR     46  37  71 SW3       29.87R
HIBBING        CLOUDY    33  32  96 CALM      29.89R
EVELETH        CLOUDY    37  37 100 W3        29.90S
DULUTH HARBOR  CLOUDY    52  43  71 SW8       29.90R
TWO HARBORS    CLOUDY    52  41  66 W5        29.87R
SILVER BAY     CLOUDY    52  39  62 W5        29.86R
GRAND MARAIS     N/A     42  39  89 SW5       29.83S
G MARAIS ARPRT CLEAR     45  34  65 W3        29.85R
$$
MNZ029>031-032-039>041-046>048-054>057-064-170800-
   West Central Minnesota

CITY           SKY/WX    TMP DP  RH WIND       PRES   REMARKS
FERGUS FALLS   CLOUDY    43  39  87 CALM      29.96R
WHEATON        CLEAR     48  39  71 SW5       29.97S
MORRIS         CLEAR     43  39  87 CALM      29.95S
ALEXANDRIA     CLOUDY    49  41  74 W5        29.96R
ELBOW LAKE     FAIR      43  40  91 CALM      29.96S
WADENA         CLOUDY    43  37  81 CALM      29.93S
GLENWOOD       CLEAR     46  41  81 W7        29.96R
APPLETON       CLEAR     45  39  81 CALM      29.96S
BENSON         CLEAR     39  37  93 CALM      29.98R
ORTONVILLE     CLEAR     50  41  71 W6        29.97R
MADISON        CLEAR     48  41  76 W8        29.97R
WILLMAR        FAIR      41  37  87 CALM      29.98S
$$
MNZ033>034-036-042>043-049>051-058-059-170800-
   Central Minnesota

CITY           SKY/WX    TMP DP  RH WIND       PRES   REMARKS
ST CLOUD       CLEAR     41  39  93 CALM      29.95R
SAUK CENTRE    FAIR      45  39  79 W3        29.96R
PAYNESVILLE    CLOUDY    42  39  91 W6        29.96S
AITKIN         CLOUDY    45  37  76 SW3       29.91R
PINE RIVER     CLEAR     39  36  87 CALM      29.96S
BRAINERD       PTCLDY    43  38  82 S3        29.94R
STAPLES        PTCLDY    45  37  76 CALM      29.94R
LONG PRAIRIE   FAIR      41  37  87 CALM      29.95S
LITTLE FALLS   CLEAR     37  34  87 CALM      29.94S
LITCHFIELD     CLOUDY    48  41  76 SW3       29.97R
BUFFALO        CLEAR     45  38  76 CALM      29.97S
MAPLE LAKE     CLEAR     44  41  88 CALM      29.97R
HUTCHINSON     CLOUDY    44  40  85 SW3       29.98S
$$
MNZ037-044-045-052-053-170800-
   East Central Minnesota

CITY           SKY/WX    TMP DP  RH WIND       PRES   REMARKS
PRINCETON      CLEAR     41  36  81 CALM      29.95S
MORA           CLOUDY    36  34  93 CALM      29.96R
CAMBRIDGE      CLEAR     45  36  70 CALM      29.95S
RUSH CITY      PTCLDY    42  37  84 CALM      29.95R
MOOSE LAKE     CLOUDY    39  36  87 CALM      29.90S
HINCKLEY       FAIR      36  36 100 CALM      29.93S
CLOQUET        CLOUDY    46  36  66 W7        29.91R
MCGREGOR       CLOUDY    50  39  66 W3        29.92R
$$
MNZ071>073-080-081-089-090-097-098-170800-
   Southwest Minnesota

CITY           SKY/WX    TMP DP  RH WIND       PRES   REMARKS
MONTEVIDEO     CLEAR     48  39  71 W3        29.97S
GRANITE FALLS  CLEAR     42  39  88 SW5       29.99R
CANBY          CLEAR     55  40  58 SW10      29.99R
MARSHALL       CLEAR     55  40  56 W10       29.98S
REDWOOD FALLS  CLEAR     46  38  73 SW6       29.98R
OLIVIA         CLOUDY    43  37  81 CALM      29.97S
PIPESTONE      CLEAR     46  37  71 CALM      30.02R
WORTHINGTON    CLEAR     51  39  63 SW7       30.03R
JACKSON        CLEAR     54  39  58 SW9       30.03R
TRACY          CLEAR     52  41  65 SW10      29.99S
SLAYTON        CLEAR     48  39  71 SW5       30.02R
$$
MNZ065>067-074>077-082>085-091>093-170800-
   South Central Minnesota

CITY           SKY/WX    TMP DP  RH WIND       PRES   REMARKS
MANKATO        CLEAR     50  40  68 SW6       30.00R
NEW ULM          N/A     46  39  76 SW5       29.99R
ST JAMES       CLEAR     48  39  71 S6        30.01R
FAIRMONT       CLEAR     53  40  61 SW13      30.02S
GLENCOE        CLOUDY    47  40  77 SW5       29.97S
FARIBAULT      CLEAR     52  39  62 SW6       30.00S
OWATONNA       CLEAR     54  41  62 SW10      30.01R
WASECA         CLEAR     52  41  66 SW7       30.02S
ALBERT LEA     CLEAR     57  43  58 SW9G16    30.03R
$$
MNZ078>079-086>088-094>096-170800-
   Southeast Minnesota

CITY           SKY/WX    TMP DP  RH WIND       PRES   REMARKS
ROCHESTER      CLEAR     52  40  63 SW15      30.03R
RED WING       CLEAR     52  37  58 CALM      29.98R
STANTON        CLEAR     55  40  58 SW7       29.98R
DODGE CENTER   CLEAR     50  37  62 SW9       30.01S
WINONA         CLEAR     55  37  50 SW8       30.01S
AUSTIN         CLEAR     48  39  71 S6        30.03S
PRESTON        CLEAR     51  38  62 SW14      30.04S
$$
ABBREVIATIONS USED IN REMARKS
   TC - TEMPERATURES IN CELSIUS
  WCI - WIND CHILL INDEX
   HX - HEAT INDEX
  VSB - VISIBILITY
$$




USA.gov is the U.S. government's official web portal to all federal, state and local government web resources and services.